Location: Maybalyq K�li
(50.9889°N, 71.5014°E)
Time: 09:46:42
(UTC+00:00)

Daily predictions for brighter satellites

Satellite Brightness Start Highest point End
(mag) Time Altitude Azimuth Time Altitude Azimuth Time Altitude Azimuth
ATLAS 2AS CENTAUR R/B 3.9 12:23:01 10° W 12:30:20 39° NNW 12:37:24 10° NE
Cosmos 2279 Rocket 4.5 12:24:59 10° NNW 12:31:14 70° W 12:37:26 10° S
FengYun 1-2 T 4.3 12:27:48 10° SSE 12:33:22 73° ENE 12:39:01 10° NNW
Cosmos 2112 Rocket 4.0 12:29:56 10° NNW 12:35:11 67° ENE 12:40:21 10° SE
SeaSat 1 2.7 12:30:34 10° NNE 12:35:31 72° NW 12:40:25 10° SW
COSMOS 2406 3.5 12:30:43 10° NNW 12:36:20 47° NE 12:41:52 10° SE
Cosmos 158 Rocket 4.3 12:31:01 10° NNW 12:36:24 77° WSW 12:41:48 10° SSE
Cosmos 1844 Rocket 2.7 12:31:19 10° SSW 12:36:59 80° ESE 12:42:39 10° NNE
Cosmos 2082 Rocket 3.1 12:32:08 10° NNW 12:37:07 29° NE 12:42:02 10° ESE
Cosmos 44 3.6 12:33:40 10° SSW 12:38:22 53° ESE 12:43:24 10° NE
H-2A R/B 2.2 12:34:51 10° NNE 12:39:11 55° ESE 12:43:23 10° S
Cosmos 1844 3.8 12:34:42 10° SSW 12:40:21 71° ESE 12:46:06 10° NNE
Cosmos 990 Rocket 4.4 12:35:37 10° S 12:40:30 42° ESE 12:45:22 10° NE
Cosmos 1818 3.7 12:36:02 10° SW 12:41:28 83° NW 12:47:00 10° NE
USA 290 3.3 12:39:09 10° N 12:41:51 24° NE 12:44:32 10° ESE
Cosmos 1602 Rocket 4.3 12:39:15 10° SSE 12:43:08 32° E 12:47:03 10° NNE
Helios 1A Rocket 4.4 12:40:49 10° ESE 12:43:39 18° ENE 12:46:29 10° NNE
Cosmos 1939 Rocket 3.0 12:40:06 10° SSE 12:44:04 53° ENE 12:47:59 10° N
Meteor 2-1 Rocket 4.2 12:39:51 10° NNW 12:45:26 83° ENE 12:50:56 10° SSE
SJ 16-02 1.4 12:41:51 10° SSW 12:46:15 90° WNW 12:50:40 10° NNE
ADEOS Rocket 4.1 12:41:50 10° N 12:47:16 40° WNW 12:52:22 10° SW
IRS-1C Rocket 4.5 12:43:01 10° SE 12:47:57 42° ENE 12:52:52 10° N
YAOGAN 1 3.5 12:46:13 10° ESE 12:49:47 26° ENE 12:53:22 10° N
CZ-4C R/B 3.7 12:44:51 10° WNW 12:49:52 29° N 12:55:46 10° NE
Cosmos 2227 Rocket 4.4 12:47:38 10° NW 12:49:52 12° NNW 12:52:08 10° N
USA 234 3.6 12:44:10 10° ENE 12:50:34 57° N 12:56:57 10° W
Cosmos 1892 Rocket 4.1 12:46:35 10° SSW 12:50:51 62° WNW 12:55:11 10° N
ATLAS 5 CENTAUR R/B 3.2 12:47:42 10° WNW 12:51:24 26° NNW 12:55:36 10° NE
H-2A R/B 3.4 12:49:24 10° S 12:53:28 54° W 12:57:45 10° NNW
Meteor 2-13 Rocket 4.4 12:48:17 10° S 12:54:23 73° E 13:00:32 10° NNE
BREEZE-M DEB (TANK) 1.9 12:54:40 10° W 12:57:01 62° S 12:59:07 12° ESE
Cosmos 1812 Rocket 3.6 12:55:09 10° N 12:59:29 57° ENE 13:03:46 10° SSE
Iridium 4 Rocket 3.9 12:54:42 10° N 12:59:52 41° ENE 13:04:34 10° SSE
NOSS 2-1 (E) 3.3 12:58:48 10° SSW 13:01:59 46° SE 13:04:44 14° NE
Cosmos 1703 3.3 12:58:41 10° S 13:02:27 53° E 13:06:16 10° NNE
Okean O Rocket 2.2 12:59:48 10° S 13:04:11 61° WSW 13:08:34 10° NNW
Cosmos 1689 Rocket 4.1 13:06:02 12° ESE 13:06:02 12° ESE 13:06:42 10° SE
Cosmos 2278 Rocket 3.0 13:02:02 10° SSE 13:06:55 31° ESE 13:11:31 11° NE
SKYMED 2 3.8 13:05:25 10° NNE 13:09:39 48° E 13:13:51 10° S
Cosmos 2344 4.3 13:01:38 10° NW 13:10:36 82° NE 13:23:05 10° SE
COSMOS 2455 3.7 13:05:39 10° WSW 13:11:27 47° NW 13:17:16 10° NNE
X-37B 2.5 13:09:04 10° WSW 13:11:46 25° S 13:14:28 10° SE
CZ-4 R/B 1.7 13:08:51 10° SE 13:12:39 42° ENE 13:16:24 10° N
ISS -3.8 13:09:20 10° W 13:12:44 79° N 13:14:54 21° E
CZ-2C R/B 3.2 13:08:20 10° SSE 13:13:49 72° ENE 13:19:35 10° N
CZ-4B R/B 4.3 13:08:30 10° S 13:13:56 51° W 13:19:29 10° NNW
Okean-O 2.9 13:11:23 10° SE 13:15:35 44° ENE 13:19:49 10° N
ERS-2 3.0 13:14:57 14° NE 13:17:28 29° E 13:20:41 10° SSE
Cosmos 1092 Rocket 3.9 13:16:45 10° S 13:22:53 75° E 13:29:03 10° NNE
Cosmos 1346 Rocket 3.4 13:22:32 10° SSE 13:26:05 33° E 13:28:28 17° NE
ARGOS 3.5 13:21:06 10° SE 13:26:07 42° ENE 13:31:10 10° N
Cosmos 1340 2.5 13:24:02 10° S 13:27:46 81° E 13:31:33 10° NNE
Cosmos 2263 Rocket 4.3 13:27:23 10° WNW 13:31:20 19° NNW 13:35:17 10° NNE
Nadezhda 4 Rocket 4.5 13:25:47 10° SSW 13:31:56 64° WNW 13:38:05 10° N
CZ-2C R/B 3.7 13:29:30 15° NE 13:32:57 25° E 13:37:29 10° SE
Cosmos 1898 Rocket 3.5 13:29:20 10° SSW 13:34:35 86° WNW 13:39:51 10° NNE
SAR-Lupe-4 4.0 13:34:55 27° NE 13:36:11 37° E 13:39:32 10° SSE
Cosmos 372 Rocket 4.3 13:31:29 10° S 13:36:22 43° ESE 13:39:56 18° NE
Cosmos 1626 Rocket 4.2 13:32:56 10° SSW 13:37:18 59° WNW 13:41:43 10° N
Meteor 2-15 4.4 13:31:08 10° N 13:37:20 75° ENE 13:43:28 10° SSE
Cosmos 405 3.3 13:36:27 10° NNW 13:39:59 68° W 13:43:28 10° S
Cosmos 1869 3.8 13:39:14 10° N 13:42:51 35° ENE 13:43:08 34° E
PSLV R/B 4.1 13:39:17 10° NNE 13:43:26 53° E 13:47:32 10° S
Cosmos 1048 Rocket 4.1 13:39:27 10° NNW 13:44:28 51° ENE 13:48:28 16° SE
Meteor 1-11 4.1 13:39:45 10° S 13:45:22 68° E 13:50:58 10° NNE
MOS 1 Rocket 3.0 13:42:00 10° NNE 13:46:19 89° E 13:50:39 10° SSW
NOSS 2-1 (C) 3.4 13:47:52 10° WSW 13:51:08 55° NW 13:52:38 29° NNE
SAR-Lupe-1 4.0 13:51:09 37° NE 13:52:19 57° ESE 13:55:50 10° S
Cosmos 1328 4.3 13:48:44 10° SSW 13:52:40 60° WNW 13:56:37 10° N
NOSS 2-2 (C) 4.4 13:50:01 10° NW 13:54:52 52° NE 13:57:47 30° E
Cosmos-2242 3.1 13:51:03 10° NNW 13:55:21 76° W 13:59:40 10° S
CZ-4B R/B 2.5 13:53:39 10° N 13:56:50 43° WNW 13:59:55 10° SW
NOSS 2-1 (D) 3.6 13:53:52 10° WSW 13:57:05 49° NW 13:58:25 31° NNE
Cosmos 1937 Rocket 3.6 13:52:10 10° SSW 13:57:29 77° WNW 14:02:42 11° NNE
COSMO-SKYMED 1 3.1 13:53:27 10° N 13:57:45 60° WNW 14:02:02 10° SSW
Cosmos 2098 Rocket 4.3 13:50:42 10° S 13:58:10 88° E 14:05:16 10° N
CSL-04 Debris 4.0 13:53:54 10° SSE 13:59:16 73° ENE 14:04:40 10° NNW
Cosmos 2266 Rocket 4.3 13:55:44 10° SSE 14:01:26 40° E 14:07:04 10° NNE
Cosmos 1833 Rocket 3.3 13:56:38 10° NW 14:02:08 56° WSW 14:07:36 10° S
Cosmos 1758 Rocket 3.7 13:59:25 10° SSW 14:03:52 75° WNW 14:08:24 10° N
H-2A R/B 2.2 14:02:03 10° S 14:07:07 73° WSW 14:12:23 10° NNW
Cosmos 2026 Rocket 4.2 14:00:59 10° SSW 14:07:08 71° WNW 14:13:25 10° N
SL-08 RB Rocket 3.6 14:05:04 23° SE 14:07:45 62° ENE 14:12:11 10° N
Aureole 3 Rocket 4.3 14:06:01 10° NNW 14:08:58 34° W 14:12:28 10° SSW
Cosmos 1417 Rocket 4.4 14:02:44 10° N 14:09:01 87° E 14:15:20 10° S
Cosmos 2298 Rocket 4.2 14:06:07 10° S 14:11:10 47° ESE 14:11:48 45° E
Cosmos 1553 Rocket 4.1 14:05:47 10° NNW 14:12:13 80° W 14:18:32 10° S
H-2A R/B 4.5 14:11:27 10° N 14:14:48 22° WNW 14:18:05 10° WSW
Cosmos 2221 3.8 14:10:41 10° N 14:12:59 27° NNE 14:12:59 27° NNE
NOSS 2-2 (E) 4.3 14:12:59 10° NW 14:18:13 76° NE 14:21:11 35° ESE
Helios 1A Rocket 3.4 14:14:17 10° S 14:18:24 62° WSW 14:22:31 10° NNW
In-Cosmos 22 Rocket 4.2 14:13:45 10° S 14:19:24 58° E 14:23:21 19° NNE
Cosmos 2082 Rocket 2.4 14:16:01 10° NNW 14:21:44 70° WSW 14:27:23 10° SSE
ATLAS 2AS CENTAUR R/B 3.9 14:16:30 10° NW 14:23:21 32° N 14:26:02 26° NE
SJ 16-02 4.0 14:22:49 10° W 14:25:31 16° NW 14:28:12 10° N
YAOGAN 1 3.8 14:21:35 10° S 14:25:42 43° W 14:29:51 10° NNW
Cosmos 389 Rocket 3.9 14:22:22 10° NNW 14:24:14 29° NNW 14:24:14 29° NNW
Meteor 2-21 4.4 14:22:19 10° S 14:28:14 57° E 14:34:16 10° NNE
Cosmos 2315 Rocket 3.9 14:24:07 10° N 14:30:18 58° ENE 14:31:41 47° ESE
Cosmos 883 Rocket 4.3 14:25:40 10° N 14:31:53 70° ENE 14:35:41 24° SSE
USA 234 3.5 14:31:11 42° ENE 14:33:08 56° N 14:39:31 10° WNW
MetOp-A 4.0 14:33:44 64° E 14:34:10 67° ENE 14:39:30 10° N
Cosmos 1825 Rocket 4.4 14:31:37 10° SSW 14:35:53 49° WNW 14:40:13 10° N
Meteor 2-14 Rocket 4.3 14:30:29 10° S 14:36:26 63° E 14:42:28 10° NNE
ATLAS 5 CENTAUR R/B 3.6 14:34:00 10° NW 14:37:37 21° N 14:37:53 20° N
S3M 4.1 14:32:30 10° NNW 14:38:37 73° W 14:44:42 10° S
CZ-4C R/B 3.6 14:34:37 10° NW 14:40:17 32° NNE 14:41:23 31° NNE
CSL-04 Rocket 4.2 14:35:24 10° S 14:40:47 60° WSW 14:46:17 10° NNW
IRS-1A Rocket 4.3 14:42:43 65° ENE 14:42:52 65° ENE 14:48:40 10° N
Cosmos 1655 Rocket 3.9 14:37:11 10° S 14:43:25 90° E 14:49:41 10° N
USA 281 4.0 14:44:15 33° NNE 14:44:15 33° NNE 14:49:19 10° NNW
X-37B 3.7 14:46:26 10° SW 14:47:00 11° SW 14:47:00 11° SW
CZ-4 R/B 3.9 14:44:45 10° SW 14:47:51 21° W 14:50:56 10° NW
Ariane Rocket 3.8 14:51:03 41° N 14:51:03 41° N 14:54:24 10° N
ISS -1.6 14:46:14 10° WNW 14:47:53 27° W 14:47:53 27° W
Cosmos 2278 Rocket 2.8 14:45:10 10° SW 14:50:45 55° NW 14:53:25 30° N
ERS-2 4.2 14:49:31 20° NNW 14:50:57 26° WNW 14:54:02 10° WSW
Cosmos 2292 Rocket 4.4 14:49:58 10° SSW 14:53:49 46° WSW 14:53:49 46° WSW
NOSS 2-2 (D) 4.4 14:52:23 10° NW 14:57:38 80° SW 14:58:36 65° SSE
Cosmos 2297 Rocket 4.5 14:58:24 10° N 14:59:42 12° N 14:59:42 12° N
Cosmos 909 Rocket 4.1 14:59:49 10° NW 15:06:16 71° NE 15:06:18 71° NE
Cosmos 44 Rocket 4.2 15:02:27 10° SW 15:05:47 43° SW 15:05:47 43° SW
CZ-2C R/B 3.1 15:10:56 30° N 15:13:39 63° WNW 15:19:11 10° SSW
USA 234 4.3 16:18:32 41° WNW 16:18:32 41° WNW 16:22:33 10° WNW
ATLAS 2AS CENTAUR R/B 3.9 16:08:35 10° NW 16:13:29 37° NNW 16:13:29 37° NNW
CZ-4C R/B 4.1 16:23:15 10° NW 16:26:35 32° NNW 16:26:35 32° NNW
Cosmos 2333 Rocket 4.4 22:34:49 19° NNE 22:34:49 19° NNE 22:36:22 10° NNE
COSMOS 2428 4.5 22:55:55 26° NNE 22:55:55 26° NNE 22:58:16 10° NNE
Cosmos 1943 Rocket 3.7 23:09:50 31° NNE 23:10:32 32° NE 23:15:35 10° ESE
ALOS 4.2 23:16:54 10° NNE 23:19:09 25° NE 23:19:09 25° NE
Lacrosse 4 Rocket 3.6 23:25:43 25° ENE 23:25:43 25° ENE 23:28:08 10° NE
Cosmos 2369 Rocket 3.9 23:25:33 22° N 23:27:41 28° NE 23:32:26 10° E
Cosmos 1513 Rocket 4.5 23:34:45 76° E 23:34:45 76° E 23:40:51 10° NNE
NOSS 3-3 (A) 4.5 23:36:17 59° NNW 23:37:56 80° NE 23:46:13 10° SE
NOSS 3-3 (C) 4.5 23:36:22 59° NNW 23:38:02 80° NE 23:46:19 10° SE
Cosmos 841 Rocket 4.2 23:40:00 47° NE 23:40:00 47° NE 23:43:44 10° NNE
USA 215 3.1 23:33:02 10° ENE 23:39:39 80° NNW 23:39:46 80° NW
Meteor 2-13 Rocket 4.5 23:34:44 10° N 23:40:57 77° ENE 23:47:06 10° SSE
Cosmos 2219 Rocket 3.5 23:46:41 28° N 23:46:41 28° N 23:49:40 10° NNE
SL-16 R/B 3.6 23:40:15 14° SSE 23:44:35 35° ESE 23:49:41 10° NE
ATLAS CENTAUR R/B 3.4 23:48:51 23° ENE 23:48:51 23° ENE 23:50:28 10° NE
Cosmos 1891 Rocket 4.3 23:48:30 77° N 23:48:30 77° N 23:54:06 10° N
Cosmos 2237 Rocket 2.2 23:51:30 76° NNE 23:51:30 76° NNE 23:56:46 10° NNE
CZ-2C R/B 4.1 23:46:40 10° N 23:48:48 25° N 23:48:48 25° N
Cosmos 1464 Rocket 3.8 23:53:11 78° SSW 23:53:37 85° W 23:59:52 10° N
SL-4 R/B 3.6 23:56:07 31° E 23:56:07 31° E 23:58:31 10° E
